ONEWEB-0057, 45160

Orbit data source: Space-Track

ONEWEB-0057, 45160 is a payload satellite owned by One Web (UK) in LEO that was launched on Thu, 06 Feb 2020 UTC via a SOYUZ-2-1B launch vehicle from the Tyuratam Missile And Space Complex (TTMTR). Payload-class satellites include a variety of spacecraft equipped with specific instruments for various scientific and technological missions. These include communications satellites like Starlink; space stations such as the ISS; scientific satellites like the Hubble; Earth observation satellites from companies like Planet Labs, Umbra, and HawkEye 360; GPS; miniature CubeSats for education and research; and military/defense satellites.

Loading next visibility...
Identifier
45160, 2020-008AF
Orbit
LEO
Last TLE update
14 hours ago
Origin
Manufacturer
One Web
Mission
Operational Commercial Communications
Bus & Motor
ARROW, Unknown motor
Mass
148 kg wet, ~140 kg dry
Launch date (UTC)
2020-02-06 (5 years ago)
Launch vehicle
SOYUZ-2-1B
Launch site
Tyuratam Missile And Space Complex (TTMTR)
Object type
Payload
Rocket body
Debris
Shape & HBR
Trap Box + 2 Pan, 5 m
Radar Cross Section
2.957 m², Large (>1 m²)

Expand to show TLE details & history

TLE from 14 hours ago
0 ONEWEB-0057
1 45160U 20008AF  25181.82659227 -.00000500  00000-0 -14697-2 0  9990
2 45160  87.8829 106.3463 0001776  77.8820 282.2507 13.10375427262331
Epoch: 2025-06-30T19:50Z
TLE epoch observation values (Epoch: 2025-06-30T19:50:17.572Z)
Latitude
0.00007°
Longitude
-110.35774°
Altitude
1,224.308 km
Speed
7.242 km/s
True Right ascension
07h 05m 23s
True Declination
0° 00' 00"
Sunlit
Object was in daylight at epoch
Visualization orbit readout
Latitude
-84.53741°
Longitude
-133.09589°
Altitude
1,251.648 km
Speed
7.228 km/s
Apparent Right ascension
09h 14m 21s
Apparent Declination
-65° 36' 29"
Sunlit
Object is in daylight
Visualization observer readout
Local Sidereal Time
21:42:20
Azimuth
173.413° S
Elevation
-63.998°
Doppler factor
1
Orbital elements
Apogee altitude
1,220.176 km
Perigee altitude
1,217.478 km
Semi-major axis
7,596.964 km
Eccentricity
0.00018
Inclination
87.8829°
RAAN
106.3463°
Arg. of periapsis
77.882°
True anomaly
Unknown
Mean anomaly
282.2507°
Eccentric anomaly
Unknown
Mean motion
3.2778 °/min
Orbital period
109.83 mins
BSTAR
-0.0014697
Loading maneuver chart data...
Loading SW <> Apogee altitude chart data...
Loading historical data...
Loading historical data...
Loading historical data...
Loading historical data...
Loading historical data...
Loading historical data...
Loading historical data...

ONEWEB-0057 Visibility forecast

Observer location: undefined°, undefined°

Span
Click to sort rows by Start time (UTC) header in descending order
Start Az.
Max El. time (UTC)
Max El. Az.
Max El.
End time (UTC)
End Az.
9 mins2025-07-01 17:57:57.260Z117.422° SE2025-07-01 18:02:57.260Z71.172° E20.217°2025-07-01 18:06:57.260Z34.435° NE
13 mins2025-07-01 19:45:57.260Z192.69° SSW2025-07-01 19:51:57.260Z275.787° WNW42.603°2025-07-01 19:58:57.260Z354.934° N
7 mins2025-07-02 05:27:57.260Z42.736° NE2025-07-02 05:30:57.260Z69.455° E16.338°2025-07-02 05:34:57.260Z105.352° ESE
13 mins2025-07-02 07:15:57.260Z356.996° N2025-07-02 07:21:57.260Z297.74° NW44.636°2025-07-02 07:28:57.260Z185.869° SSW
4 mins2025-07-02 09:08:57.260Z306.551° NW2025-07-02 09:10:57.260Z289.542° WNW12.839°2025-07-02 09:12:57.260Z272.601° WNW
|